Location: Il Ritiro
(43.4167°N, 13.1333°E)
Time: 01:45:01
(UTC+00:00)

Cosmos 1076 Rocket - Pass Details

Date: 05 July 2020
Orbit: 589 x 613 km, 82.5° (Epoch: 11 August)

Event Time Altitude Azimuth Distance (km) Brightness Sun altitude
Exits shadow 21:36:07 55° 156° (SSE) 724 3.5 -20.3°
Maximum altitude 21:36:54 71° 96° (E) 637 3.4 -20.4°
Drops below altitude 10° 21:41:11 10° 13° (NNE) 1,944 6.9 -20.7°
Sets 21:43:24 0° 11° (N) 2,847 7.9 -20.8°
